Regional Weather Roundup
Issued by NWS

Home | Current Version | Previous Version | Graphics & Text | Print | Product List | Glossary On
Versions: 1 2 3 4 5 6 7 8 9 10 11 12 13 14 15 16 17 18 19 20 21 22 23 24 25 26 27 28 29 30 31 32 33 34 35 36 37 38 39 40 41 42 43 44 45 46 47 48 49 50
000
ASUS44 KMEG 252110
RWRTN
TENNESSEE HOURLY STATE WEATHER ROUNDUP
NATIONAL WEATHER SERVICE MEMPHIS TN
400 PM CDT MON SEP 25 2017

TNZ002-004-019-021-049-052-054-088>092-252200-
WEST TENNESSEE

CITY           SKY/WX    TMP DP  RH WIND       PRES   REMARKS
MEMPHIS INTL   MOSUNNY   89  61  38 CALM      29.92F
NWS MEMPHIS      N/A     86 N/A N/A MISG        N/A
JACKSON        MOSUNNY   87  66  49 VRB5      29.94F
DYERSBURG      PTSUNNY   89  68  49 E8        29.94F HX  93
SOMERVILLE     MOSUNNY   88  66  48 VRB5      29.92F HX  90
COVINGTON      SUNNY     88  66  48 E6        29.93S HX  90
BOLIVAR        MOSUNNY   88  64  45 NE10      29.93F
PARIS          SUNNY     88  63  42 SE7       29.94F
HUNTINGDON     MOSUNNY   88  64  45 VRB7      29.93F
LEXINGTON      PTSUNNY   86  68  54 CALM      29.94F
SELMER         PTSUNNY   86  64  48 E8        29.94F
SAVANNAH       PTSUNNY   86  66  51 E6        29.93F
$$

TNZ008-025-027-028-033-062-065-066-252200-
NORTH MIDDLE TENNESSEE

CITY           SKY/WX    TMP DP  RH WIND       PRES   REMARKS
NASHVILLE      MOSUNNY   88  62  41 CALM      29.96F
PORTLAND       MOSUNNY   86  63  45 E5        29.96F
CLARKSVILLE    SUNNY     88  60  38 E5        29.95F
SMYRNA         MOSUNNY   87  64  46 N8        29.97F
COOKEVILLE     SUNNY     86  64  48 VRB6      29.97F
GALLATIN       PTSUNNY   88  64  45 CALM      29.98F
CROSSVILLE     SUNNY     83  61  47 NE3       30.03F
$$

TNZ061-075-076-078-094-096-097-252200-
SOUTH MIDDLE TENNESSEE

CITY           SKY/WX    TMP DP  RH WIND       PRES   REMARKS
FAYETTEVILLE   SUNNY     84  64  51 E5        29.96F
TULLAHOMA      MOSUNNY   84  61  45 VRB3      29.99S
WINCHESTER     MOSUNNY   82  64  54 CALM      29.97F
MCMINNVILLE    SUNNY     86  66  51 NE6       29.98F
COLUMBIA       PTSUNNY   86 N/A N/A NE8       29.93F
SHELBYVILLE    MOSUNNY   86  64  48 CALM      29.96F
$$

TNZ017-018-042-046-047-252200-
NORTHEAST TENNESSEE

CITY           SKY/WX    TMP DP  RH WIND       PRES   REMARKS
TRI CITIES     PTSUNNY   86  59  39 CALM      30.01F
ELIZABETHTON   SUNNY     84  59  42 VRB5      30.01F
$$

TNZ012-013-036-069-073-074-252200-
CENTRAL EAST TENNESSEE

CITY           SKY/WX    TMP DP  RH WIND       PRES   REMARKS
KNOXVILLE      PTSUNNY   85  61  44 E8        29.97F
OAK RIDGE      SUNNY     86  62  44 VRB6      29.99F
DOWNTOWN KNOXV SUNNY     88  63  42 CALM      29.97F
MORRISTOWN     SUNNY     82  59  44 CALM      30.00S
JACKSBORO      SUNNY     84  57  39 E6        30.03F
$$

TNZ083-085-099-252200-
SOUTHEAST TENNESSEE

CITY           SKY/WX    TMP DP  RH WIND       PRES   REMARKS
CHATTANOOGA    MOSUNNY   87  57  35 NE3       29.95F
DAYTON         CLEAR     86  63  45 CALM      29.96S
$$

SKY/WX REPORTED AS FAIR MEANS FEW OR NO CLOUDS BELOW
12 THOUSAND FEET.





USA.gov is the U.S. government's official web portal to all federal, state and local government web resources and services.